This demonstration page uses our WeatherBlox Daily Observations layout. Learn more.

Left ArrowRight Arrow

38.80484, -77.04692

Hourly Observations for July 24, 2021

Temp ( °F °C ) Dew Point ( °F °C ) Humidity (%) Winds ( mph kmh ) Pressure ( in mb ) Visibility ( mi km ) Precip ( " mm )
12:52 am 00:52 Mostly Cloudy 73 22.8 55 12.8 53 53 SW 6 9 30.14 1021 10 16 N/A
1:52 am 01:52 Mostly Cloudy 73 22.8 55 12.8 53 53 SW 5 7 30.12 1020 10 16 N/A
2:52 am 02:52 Mostly Cloudy 73 22.8 55 12.8 53 53 SSW 3 6 30.11 1020 10 16 N/A
3:52 am 03:52 Mostly Cloudy 72 22.2 57 13.9 59 59 S 3 6 30.10 1019 10 16 N/A
4:52 am 04:52 Partly Cloudy 72 22.2 57 13.9 59 59 N N/A 30.10 1019 10 16 N/A
5:52 am 05:52 Mostly Cloudy 70 21.1 60 15.6 71 71 SW 3 6 30.10 1019 10 16 N/A
6:52 am 06:52 Mostly Cloudy 72 22.2 61 16.1 68 68 N N/A 30.11 1020 10 16 N/A
7:52 am 07:52 Mostly Cloudy 74 23.3 63 17.2 69 69 N N/A 30.11 1020 10 16 N/A
8:52 am 08:52 Mostly Cloudy 76 24.4 63 17.2 64 64 S 6 9 30.12 1020 10 16 N/A
9:52 am 09:52 Cloudy 78 25.6 64 17.8 62 62 S 9 15 30.12 1020 10 16 N/A
10:52 am 10:52 Mostly Cloudy 79 26.1 65 18.3 62 62 S 7 11 30.11 1020 10 16 N/A
12:52 pm 12:52 Mostly Cloudy 84 28.9 62 16.7 48 48 S 9 15 30.11 1020 10 16 N/A
1:52 pm 13:52 Mostly Cloudy 86 30 63 17.2 46 46 S 9 15 30.09 1019 10 16 N/A
2:52 pm 14:52 Mostly Cloudy 85 29.4 63 17.2 48 48 S 12 19 30.07 1018 10 16 N/A
3:52 pm 15:52 Mostly Cloudy 86 30 64 17.8 48 48 S 14 22 30.05 1018 10 16 N/A
4:52 pm 16:52 Cloudy 82 27.8 62 16.7 51 51 SE 14 22 30.04 1017 10 16 N/A
5:52 pm 17:52 Cloudy 82 27.8 63 17.2 53 53 ESE 13 20 30.03 1017 10 16 N/A
6:52 pm 18:52 Mostly Cloudy with Light Rain 80 26.7 66 18.9 62 62 SE 10 17 30.01 1016 10 16 0.00 0.00
7:48 pm 19:48 Mostly Cloudy with Light Rain 79 26 68 20 70 70 S 14 22 30.03 1017 6 10 0.02 0.51
7:52 pm 19:52 Mostly Cloudy with Light Rain 78 25.6 68 20 71 71 SSE 12 19 30.02 1017 7 11 0.02 0.51
8:52 pm 20:52 Mostly Cloudy 79 26.1 67 19.4 67 67 S 15 24 30.02 1017 10 16 0.01 0.25
9:52 pm 21:52 Mostly Cloudy 78 25.6 66 18.9 67 67 S 16 26 30.02 1017 10 16 N/A
10:52 pm 22:52 Partly Cloudy 77 25 64 17.8 64 64 S 14 22 30.01 1016 10 16 N/A
11:52 pm 23:52 Mostly Cloudy 76 24.4 64 17.8 67 67 SSW 9 15 30.01 1016 10 16 N/A

Powered by AerisWeather